Time,TemperatureF,DewpointF,PressureIn,WindDirection,WindDirectionDegrees,WindSpeedMPH,WindSpeedGustMPH,Humidity,HourlyPrecipIn,Conditions,Clouds,dailyrainin,SoftwareType,DateUTC
2017-12-16 00:02:00,57.1,11.0,29.91,NW,304,4.0,7.0,16,0.00,,,0.00,weatherlink.com 1.10,2017-12-16 08:02:00,
2017-12-16 00:17:00,57.0,11.0,29.90,NW,315,7.0,8.0,16,0.00,,,0.00,weatherlink.com 1.10,2017-12-16 08:17:00,
2017-12-16 00:32:00,57.8,10.0,29.89,West,259,5.0,13.0,15,0.00,,,0.00,weatherlink.com 1.10,2017-12-16 08:32:00,
2017-12-16 00:47:00,57.2,10.0,29.89,West,278,4.0,8.0,15,0.00,,,0.00,weatherlink.com 1.10,2017-12-16 08:47:00,
2017-12-16 01:02:00,55.9,10.0,29.89,West,263,3.0,6.0,16,0.00,,,0.00,weatherlink.com 1.10,2017-12-16 09:02:00,
2017-12-16 01:18:00,54.9,11.0,29.88,NW,322,4.0,9.0,17,0.00,,,0.00,weatherlink.com 1.10,2017-12-16 09:18:00,
2017-12-16 01:32:00,55.7,10.0,29.87,NW,320,3.0,7.0,16,0.00,,,0.00,weatherlink.com 1.10,2017-12-16 09:32:00,
2017-12-16 02:02:00,56.0,10.0,29.86,West,259,6.0,9.0,16,0.00,,,0.00,weatherlink.com 1.10,2017-12-16 10:02:00,
2017-12-16 02:17:00,55.4,10.0,29.85,WNW,288,3.0,7.0,16,0.00,,,0.00,weatherlink.com 1.10,2017-12-16 10:17:00,
2017-12-16 02:32:00,55.1,11.0,29.85,WNW,285,5.0,7.0,17,0.00,,,0.00,weatherlink.com 1.10,2017-12-16 10:32:00,
2017-12-16 02:47:00,53.4,11.0,29.84,West,281,3.0,8.0,18,0.00,,,0.00,weatherlink.com 1.10,2017-12-16 10:47:00,
2017-12-16 03:02:00,53.2,10.0,29.84,WNW,291,3.0,5.0,18,0.00,,,0.00,weatherlink.com 1.10,2017-12-16 11:02:00,
2017-12-16 03:18:00,52.8,11.0,29.80,West,270,5.0,9.0,19,0.00,,,0.00,weatherlink.com 1.10,2017-12-16 11:18:00,
2017-12-16 03:32:00,54.4,10.0,29.79,West,278,6.0,9.0,17,0.00,,,0.00,weatherlink.com 1.10,2017-12-16 11:32:00,
2017-12-16 03:47:00,56.1,10.0,29.76,WNW,302,3.0,9.0,16,0.00,,,0.00,weatherlink.com 1.10,2017-12-16 11:47:00,
2017-12-16 04:03:00,57.4,11.0,29.75,WSW,257,10.0,10.0,16,0.00,,,0.00,weatherlink.com 1.10,2017-12-16 12:03:00,
2017-12-16 04:17:00,56.7,12.0,29.70,SSW,197,6.0,9.0,17,0.00,,,0.00,weatherlink.com 1.10,2017-12-16 12:17:00,
2017-12-16 04:33:00,56.1,18.0,29.68,WNW,299,2.0,7.0,22,0.00,,,0.00,weatherlink.com 1.10,2017-12-16 12:33:00,
2017-12-16 04:47:00,57.4,14.0,29.70,NW,324,3.0,13.0,18,0.00,,,0.00,weatherlink.com 1.10,2017-12-16 12:47:00,
2017-12-16 05:03:00,54.8,12.0,29.72,WNW,299,10.0,14.0,18,0.00,,,0.00,weatherlink.com 1.10,2017-12-16 13:03:00,
2017-12-16 05:18:00,52.3,14.0,29.72,NW,304,6.0,12.0,22,0.00,,,0.00,weatherlink.com 1.10,2017-12-16 13:18:00,
2017-12-16 05:33:00,50.5,17.0,29.72,WNW,294,8.0,10.0,27,0.00,,,0.00,weatherlink.com 1.10,2017-12-16 13:33:00,
2017-12-16 05:48:00,48.5,18.0,29.72,WNW,295,7.0,9.0,30,0.00,,,0.00,weatherlink.com 1.10,2017-12-16 13:48:00,
2017-12-16 06:03:00,49.6,16.0,29.72,WNW,302,5.0,8.0,26,0.00,,,0.00,weatherlink.com 1.10,2017-12-16 14:03:00,
2017-12-16 06:18:00,49.9,14.0,29.73,WNW,283,6.0,9.0,24,0.00,,,0.00,weatherlink.com 1.10,2017-12-16 14:18:00,
2017-12-16 06:33:00,46.8,20.0,29.74,NW,314,4.0,7.0,35,0.00,,,0.00,weatherlink.com 1.10,2017-12-16 14:33:00,
2017-12-16 06:48:00,45.9,21.0,29.74,WNW,300,3.0,6.0,38,0.00,,,0.00,weatherlink.com 1.10,2017-12-16 14:48:00,
2017-12-16 07:03:00,46.2,22.0,29.74,WNW,294,4.0,7.0,39,0.00,,,0.00,weatherlink.com 1.10,2017-12-16 15:03:00,
2017-12-16 07:18:00,46.1,22.0,29.73,WNW,285,2.0,3.0,38,0.00,,,0.00,weatherlink.com 1.10,2017-12-16 15:18:00,
2017-12-16 07:33:00,45.1,20.0,29.73,WNW,291,3.0,4.0,37,0.00,,,0.00,weatherlink.com 1.10,2017-12-16 15:33:00,
2017-12-16 07:48:00,46.3,24.0,29.72,WNW,293,3.0,9.0,42,0.00,,,0.00,weatherlink.com 1.10,2017-12-16 15:48:00,
2017-12-16 08:03:00,47.3,25.0,29.73,NW,304,5.0,7.0,42,0.00,,,0.00,weatherlink.com 1.10,2017-12-16 16:03:00,
2017-12-16 08:19:00,48.3,26.0,29.73,WNW,290,5.0,9.0,42,0.00,,,0.00,weatherlink.com 1.10,2017-12-16 16:19:00,
2017-12-16 08:33:00,47.3,28.0,29.73,West,277,6.0,10.0,47,0.00,,,0.00,weatherlink.com 1.10,2017-12-16 16:33:00,
2017-12-16 08:48:00,47.8,28.0,29.73,West,274,4.0,7.0,47,0.00,,,0.00,weatherlink.com 1.10,2017-12-16 16:48:00,
2017-12-16 09:03:00,48.9,28.0,29.73,WNW,288,4.0,7.0,45,0.00,,,0.00,weatherlink.com 1.10,2017-12-16 17:03:00,